TimeMST,TemperatureF,Dew PointF,Humidity,Sea Level PressureIn,VisibilityMPH,Wind Direction,Wind SpeedMPH,Gust SpeedMPH,PrecipitationIn,Events,Conditions,WindDirDegrees,DateUTC
12:53 AM,8.6,-0.4,67,30.26,10.0,SW,3.5,-,N/A,,Clear,220,2013-01-03 07:53:00
1:53 AM,7.0,-2.0,67,30.42,10.0,SW,3.5,-,N/A,,Clear,220,2013-01-03 08:53:00
2:53 AM,8.1,-0.9,67,30.40,10.0,Calm,Calm,-,N/A,,Clear,0,2013-01-03 09:53:00
3:53 AM,7.0,-2.9,64,30.40,10.0,Calm,Calm,-,N/A,,Clear,0,2013-01-03 10:53:00
4:53 AM,8.1,-2.0,64,30.40,10.0,South,5.8,-,N/A,,Clear,190,2013-01-03 11:53:00
5:53 AM,8.1,-2.0,64,30.41,10.0,South,6.9,-,N/A,,Clear,180,2013-01-03 12:53:00
6:53 AM,7.0,-2.9,64,30.42,10.0,South,5.8,-,N/A,,Clear,180,2013-01-03 13:53:00
7:53 AM,10.0,-2.0,58,30.39,10.0,Calm,Calm,-,N/A,,Clear,0,2013-01-03 14:53:00
8:53 AM,10.0,-0.9,61,30.40,10.0,Calm,Calm,-,N/A,,Clear,0,2013-01-03 15:53:00
9:53 AM,15.1,1.0,54,30.38,10.0,Calm,Calm,-,N/A,,Clear,0,2013-01-03 16:53:00
10:53 AM,21.0,7.0,55,30.35,10.0,NNE,3.5,-,N/A,,Clear,20,2013-01-03 17:53:00
11:53 AM,25.0,7.0,46,30.30,10.0,Calm,Calm,-,N/A,,Clear,0,2013-01-03 18:53:00
12:53 PM,28.0,12.0,51,30.27,10.0,North,4.6,-,N/A,,Clear,350,2013-01-03 19:53:00
1:53 PM,32.0,12.9,45,30.27,10.0,Calm,Calm,-,N/A,,Clear,0,2013-01-03 20:53:00
2:53 PM,30.0,15.1,54,30.29,10.0,South,3.5,-,N/A,,Clear,180,2013-01-03 21:53:00
3:53 PM,26.1,15.1,63,30.30,10.0,SSW,8.1,-,N/A,,Clear,200,2013-01-03 22:53:00
5:53 PM,17.1,8.1,68,30.32,10.0,Calm,Calm,-,N/A,,Clear,0,2013-01-04 00:53:00
6:53 PM,17.1,7.0,65,30.32,10.0,Calm,Calm,-,N/A,,Clear,0,2013-01-04 01:53:00
7:53 PM,12.9,6.1,74,30.32,10.0,Calm,Calm,-,N/A,,Clear,0,2013-01-04 02:53:00
8:53 PM,18.0,7.0,62,30.31,10.0,South,6.9,-,N/A,,Clear,180,2013-01-04 03:53:00
9:53 PM,14.0,3.9,64,30.31,10.0,Calm,Calm,-,N/A,,Clear,0,2013-01-04 04:53:00
10:53 PM,16.0,5.0,62,30.28,10.0,Calm,Calm,-,N/A,,Clear,0,2013-01-04 05:53:00
11:53 PM,14.0,3.9,64,30.26,10.0,Calm,Calm,-,N/A,,Clear,0,2013-01-04 06:53:00